| time (UTC) | temp F | wind direction | speed MPH | gust MPH | rain 1hr in | rain 24hr in | rain mn in | humidity % | barometer mb |
| 20260906081513 | 49 | 41 | 7.0 | 21.0 | 0.00 | 0.01 | 0.00 | 79 | 1009.2 |
| 20260906080010 | 49 | 27 | 9.0 | 23.0 | 0.00 | 0.01 | 0.00 | 79 | 1009.2 |
| 20260906074504 | 49 | 47 | 11.0 | 19.0 | 0.00 | 0.01 | 0.00 | 79 | 1009.0 |
| 20260906073002 | 49 | 27 | 11.0 | 18.0 | 0.00 | 0.01 | 0.00 | 80 | 1008.9 |
| 20260906071600 | 49 | 15 | 8.0 | 18.0 | 0.00 | 0.01 | 0.00 | 80 | 1008.7 |
| 20260906070059 | 49 | 33 | 8.0 | 16.0 | 0.00 | 0.01 | 0.00 | 79 | 1008.6 |
| 20260906064556 | 49 | 28 | 11.0 | 25.0 | 0.00 | 0.01 | 0.00 | 80 | 1008.4 |
| 20260906063054 | 49 | 36 | 10.0 | 19.0 | 0.00 | 0.01 | 0.00 | 81 | 1008.3 |
| 20260906061550 | 49 | 44 | 9.0 | 17.0 | 0.00 | 0.01 | 0.00 | 81 | 1008.0 |
| 20260906060048 | 49 | 14 | 10.0 | 18.0 | 0.00 | 0.01 | 0.00 | 81 | 1007.9 |
| 20260906054549 | 49 | 25 | 11.0 | 19.0 | 0.00 | 0.01 | 0.00 | 80 | 1007.7 |
| 20260906053043 | 49 | 35 | 12.0 | 21.0 | 0.00 | 0.01 | 0.00 | 79 | 1007.4 |
| 20260906051550 | 49 | 31 | 10.0 | 20.0 | 0.00 | 0.01 | 0.00 | 81 | 1007.2 |
| 20260906050036 | 49 | 41 | 11.0 | 20.0 | 0.00 | 0.01 | 0.00 | 80 | 1007.1 |
| 20260906044534 | 49 | 33 | 9.0 | 22.0 | 0.00 | 0.01 | 0.00 | 79 | 1006.9 |
| 20260906043031 | 49 | 39 | 10.0 | 20.0 | 0.00 | 0.01 | 0.00 | 79 | 1006.7 |
| 20260906041528 | 49 | 34 | 9.0 | 19.0 | 0.00 | 0.01 | 0.00 | 80 | 1006.6 |
| 20260906040030 | 50 | 22 | 10.0 | 18.0 | 0.00 | 0.01 | 0.00 | 82 | 1006.4 |
| 20260906034522 | 50 | 27 | 10.0 | 19.0 | 0.00 | 0.09 | 0.00 | 81 | 1006.2 |
| 20260906033030 | 50 | 21 | 10.0 | 19.0 | 0.00 | 0.09 | 0.00 | 82 | 1006.0 |
| 20260906031518 | 50 | 29 | 9.0 | 21.0 | 0.00 | 0.09 | 0.00 | 81 | 1005.9 |
| 20260906030014 | 51 | 47 | 11.0 | 17.0 | 0.00 | 0.09 | 0.00 | 80 | 1005.7 |
| 20260906024530 | 51 | 31 | 9.0 | 18.0 | 0.00 | 0.09 | 0.00 | 79 | 1005.6 |
| 20260906023015 | 51 | 28 | 11.0 | 16.0 | 0.00 | 0.09 | 0.00 | 79 | 1005.5 |
| 20260906021510 | 51 | 4 | 9.0 | 18.0 | 0.00 | 0.09 | 0.00 | 80 | 1005.4 |
| 20260906020005 | 51 | 43 | 7.0 | 20.0 | 0.00 | 0.09 | 0.00 | 79 | 1005.2 |
| 20260906014508 | 51 | 42 | 11.0 | 20.0 | 0.00 | 0.09 | 0.00 | 78 | 1005.1 |
| 20260906013102 | 51 | 12 | 10.0 | 20.0 | 0.00 | 0.09 | 0.00 | 78 | 1004.9 |
| 20260906011604 | 51 | 28 | 10.0 | 22.0 | 0.00 | 0.09 | 0.00 | 75 | 1004.8 |
| 20260906010055 | 51 | 33 | 9.0 | 17.0 | 0.00 | 0.09 | 0.00 | 74 | 1004.7 |
| 20260906004603 | 52 | 38 | 11.0 | 18.0 | 0.00 | 0.09 | 0.00 | 75 | 1004.6 |
| 20260906003054 | 52 | 17 | 11.0 | 18.0 | 0.00 | 0.09 | 0.00 | 77 | 1004.5 |
| 20260906001645 | 53 | 30 | 10.0 | 17.0 | 0.00 | 0.09 | 0.00 | 76 | 1004.3 |
| 20260906000043 | 53 | 44 | 10.0 | 18.0 | 0.00 | 0.09 | 0.00 | 75 | 1004.1 |
| 20260905234538 | 53 | 34 | 8.0 | 16.0 | 0.00 | 0.09 | 0.00 | 78 | 1004.0 |
| 20260905233037 | 53 | 347 | 9.0 | 19.0 | 0.00 | 0.09 | 0.00 | 77 | 1003.9 |
| 20260905231540 | 54 | 34 | 7.0 | 16.0 | 0.00 | 0.09 | 0.00 | 75 | 1003.7 |
| 20260905230034 | 54 | 33 | 9.0 | 16.0 | 0.00 | 0.09 | 0.00 | 78 | 1003.7 |
| 20260905224533 | 54 | 33 | 6.0 | 12.0 | 0.00 | 0.09 | 0.00 | 78 | 1003.7 |
| 20260905223031 | 54 | 37 | 7.0 | 13.0 | 0.00 | 0.09 | 0.00 | 77 | 1003.6 |
| 20260905221528 | 54 | 30 | 4.0 | 14.0 | 0.00 | 0.09 | 0.00 | 78 | 1003.5 |
| 20260905220026 | 54 | 37 | 7.0 | 14.0 | 0.00 | 0.09 | 0.00 | 77 | 1003.4 |
| 20260905214527 | 54 | 36 | 6.0 | 16.0 | 0.00 | 0.09 | 0.00 | 74 | 1003.2 |
| 20260905213020 | 54 | 9 | 7.0 | 12.0 | 0.00 | 0.09 | 0.00 | 76 | 1003.1 |
| 20260905211520 | 54 | 29 | 5.0 | 12.0 | 0.00 | 0.09 | 0.00 | 80 | 1003.0 |
| 20260905210011 | 53 | 60 | 6.0 | 12.0 | 0.00 | 0.09 | 0.00 | 83 | 1002.9 |
| 20260905204513 | 53 | 47 | 6.0 | 16.0 | 0.00 | 0.09 | 0.09 | 83 | 1002.8 |
| 20260905203009 | 53 | 54 | 5.0 | 15.0 | 0.00 | 0.09 | 0.09 | 83 | 1002.7 |
| 20260905201506 | 53 | 44 | 6.0 | 11.0 | 0.00 | 0.09 | 0.09 | 84 | 1002.6 |
| 20260905200007 | 53 | 45 | 5.0 | 13.0 | 0.00 | 0.09 | 0.09 | 83 | 1002.5 |
| 20260905194504 | 53 | 38 | 6.0 | 14.0 | 0.00 | 0.09 | 0.09 | 84 | 1002.3 |
| 20260905193004 | 53 | 40 | 6.0 | 14.0 | 0.00 | 0.09 | 0.09 | 83 | 1002.3 |
| 20260905191502 | 53 | 44 | 8.0 | 14.0 | 0.00 | 0.09 | 0.09 | 83 | 1002.3 |
| 20260905190103 | 53 | 46 | 9.0 | 17.0 | 0.00 | 0.09 | 0.09 | 82 | 1002.2 |
| 20260905184600 | 53 | 61 | 5.0 | 14.0 | 0.00 | 0.09 | 0.09 | 82 | 1002.2 |
| 20260905183058 | 53 | 67 | 7.0 | 18.0 | 0.00 | 0.09 | 0.09 | 83 | 1002.1 |
| 20260905181608 | 53 | 37 | 6.0 | 20.0 | 0.00 | 0.09 | 0.09 | 84 | 1001.9 |
| 20260905180055 | 53 | 37 | 6.0 | 14.0 | 0.00 | 0.09 | 0.09 | 84 | 1001.8 |
| 20260905174602 | 53 | 30 | 5.0 | 13.0 | 0.00 | 0.09 | 0.09 | 84 | 1001.6 |
| 20260905173054 | 53 | 47 | 7.0 | 17.0 | 0.00 | 0.09 | 0.09 | 83 | 1001.5 |
| 20260905171550 | 53 | 32 | 5.0 | 15.0 | 0.00 | 0.09 | 0.09 | 83 | 1001.3 |
| 20260905170048 | 53 | 32 | 9.0 | 18.0 | 0.00 | 0.09 | 0.09 | 84 | 1001.2 |
| 20260905164546 | 53 | 31 | 5.0 | 14.0 | 0.00 | 0.09 | 0.09 | 84 | 1001.0 |
| 20260905163045 | 53 | 45 | 6.0 | 16.0 | 0.00 | 0.09 | 0.09 | 83 | 1000.9 |
| 20260905161557 | 53 | 33 | 5.0 | 13.0 | 0.00 | 0.09 | 0.09 | 83 | 1000.7 |
| 20260905160044 | 53 | 65 | 6.0 | 16.0 | 0.00 | 0.09 | 0.09 | 82 | 1000.6 |
| 20260905154541 | 53 | 36 | 6.0 | 16.0 | 0.00 | 0.09 | 0.09 | 81 | 1000.5 |
| 20260905153038 | 54 | 39 | 7.0 | 16.0 | 0.00 | 0.09 | 0.09 | 81 | 1000.4 |
| 20260905151536 | 54 | 50 | 8.0 | 16.0 | 0.00 | 0.09 | 0.09 | 79 | 1000.3 |
| 20260905150035 | 54 | 46 | 8.0 | 18.0 | 0.00 | 0.09 | 0.09 | 79 | 1000.3 |
| 20260905144533 | 54 | 18 | 10.0 | 16.0 | 0.00 | 0.09 | 0.09 | 82 | 1000.2 |
| 20260905143033 | 54 | 45 | 8.0 | 15.0 | 0.00 | 0.09 | 0.09 | 84 | 1000.0 |
| 20260905141534 | 53 | 32 | 8.0 | 20.0 | 0.00 | 0.09 | 0.09 | 83 | 999.9 |
| 20260905140026 | 53 | 56 | 10.0 | 21.0 | 0.00 | 0.09 | 0.09 | 83 | 999.7 |
| 20260905134524 | 53 | 47 | 7.0 | 21.0 | 0.00 | 0.09 | 0.09 | 85 | 999.7 |
| 20260905133023 | 54 | 47 | 10.0 | 17.0 | 0.00 | 0.09 | 0.09 | 85 | 999.4 |
| 20260905131522 | 53 | 62 | 11.0 | 18.0 | 0.00 | 0.09 | 0.09 | 85 | 999.3 |
| 20260905130021 | 53 | 57 | 9.0 | 18.0 | 0.00 | 0.09 | 0.09 | 87 | 999.2 |
| 20260905124522 | 54 | 60 | 10.0 | 17.0 | 0.00 | 0.09 | 0.09 | 86 | 999.1 |
| 20260905123027 | 54 | 58 | 8.0 | 17.0 | 0.00 | 0.09 | 0.09 | 86 | 999.0 |
| 20260905121520 | 54 | 33 | 9.0 | 17.0 | 0.00 | 0.09 | 0.09 | 87 | 998.7 |
| 20260905120013 | 54 | 31 | 10.0 | 21.0 | 0.00 | 0.09 | 0.09 | 86 | 998.6 |
| 20260905114514 | 54 | 49 | 12.0 | 18.0 | 0.00 | 0.09 | 0.09 | 87 | 998.5 |
| 20260905113011 | 54 | 37 | 7.0 | 17.0 | 0.00 | 0.09 | 0.09 | 88 | 998.5 |
| 20260905111508 | 55 | 78 | 9.0 | 18.0 | 0.00 | 0.09 | 0.09 | 86 | 998.2 |
| 20260905110007 | 54 | 110 | 11.0 | 20.0 | 0.00 | 0.09 | 0.09 | 87 | 998.1 |
| 20260905104505 | 55 | 46 | 9.0 | 18.0 | 0.00 | 0.09 | 0.09 | 86 | 997.9 |
| 20260905103105 | 54 | 68 | 9.0 | 19.0 | 0.00 | 0.09 | 0.09 | 87 | 997.7 |
| 20260905101603 | 53 | 48 | 10.0 | 19.0 | 0.00 | 0.09 | 0.09 | 88 | 997.5 |
| 20260905100106 | 53 | 43 | 10.0 | 21.0 | 0.00 | 0.09 | 0.09 | 90 | 997.4 |
| 20260905094557 | 54 | 35 | 9.0 | 19.0 | 0.00 | 0.09 | 0.09 | 87 | 997.2 |
| 20260905093055 | 54 | 33 | 10.0 | 20.0 | 0.00 | 0.09 | 0.09 | 88 | 997.1 |
| 20260905091611 | 53 | 43 | 7.0 | 18.0 | 0.00 | 0.09 | 0.09 | 91 | 997.0 |
| 20260905090052 | 53 | 39 | 10.0 | 20.0 | 0.01 | 0.09 | 0.09 | 93 | 996.9 |
| 20260905084607 | 53 | 40 | 9.0 | 19.0 | 0.01 | 0.09 | 0.09 | 91 | 996.8 |
| 20260905083146 | 54 | 52 | 12.0 | 23.0 | 0.01 | 0.09 | 0.09 | 88 | 996.4 |